Flag for Spain Weather past 2 weeks in Santa Cruz de Tenerife, Canary Islands, Spain

Now
73 °F

Clear.


Feels Like: 76 °F
Forecast: 73 / 80 °F
Wind: 7 mph from South

Location: Tenerife / Los Rodeos

Current Time: Oct 23, 2014 at 1:39:14 AM

Latest Report: Oct 22, 2014 at 11:00 PM


Visibility: 10 mi

Pressure: 30.21 "Hg

Humidity: 25%

Dew point: 36 °F

Location of Santa Cruz de TenerifeLocation

Historic Weather in Santa Cruz de Tenerife — Graph

°F

Santa Cruz de Tenerife temperature yesterday

Maximum temperature yesterday: 84 °F (at 2:00 PM)
Minimum temperature yesterday: 73 °F (at 11:00 PM)
Average temperature yesterday: 79 °F

Past Weeks' High & Low Weather Summary

 TemperatureHumidityPressure
High84 °F (Oct 22, 2:00 PM)100% (Oct 11, 10:30 AM)30.27 "Hg (Oct 11, 10:30 AM)
Low57 °F (Oct 14, 6:00 AM)14% (Oct 22, 3:30 PM)29.80 "Hg (Oct 19, 3:30 PM)
Average66 °F79%30.09 "Hg
* Reported Oct 7 11:00 PM — Oct 22 11:00 PM, Santa Cruz de Tenerife, Weather by CustomWeather, © 2014

Note: Actual official high and low records may vary slightly from our data, if they occured in-between our weather recording intervals... More about our weather records

Advertising

Santa Cruz de Tenerife weather history for previous 24 hours

 ConditionsComfort  
Time TempWeatherWind HumidityBarometerVisibility
11:00 PM
Oct 22
73 °FClear.7 mph25%30.21 "Hg10 mi
10:30 PM75 °FClear.7 mph22%30.21 "Hg10 mi
10:00 PM75 °FClear.7 mph22%30.21 "Hg10 mi
9:30 PM75 °FClear.7 mph22%30.21 "Hg10 mi
9:00 PM77 °FClear.8 mph22%30.21 "Hg10 mi
8:30 PM79 °FClear.6 mph21%30.18 "Hg10 mi
8:00 PM77 °FSunny.7 mph22%30.18 "Hg10 mi
7:30 PM79 °FPassing clouds.3 mph23%30.18 "HgN/A
7:00 PM81 °FSunny.2 mph23%30.18 "Hg10 mi
6:30 PM82 °FSunny.1 mph16%30.18 "Hg10 mi
6:00 PM81 °FSunny.2 mph21%30.18 "Hg10 mi
5:30 PM81 °FPassing clouds.5 mph18%30.18 "HgN/A
5:00 PM82 °FSunny.7 mph19%30.18 "Hg10 mi
4:30 PM84 °FSunny.9 mph18%30.18 "Hg10 mi
4:00 PM84 °FPassing clouds.9 mph15%30.18 "HgN/A
3:30 PM84 °FPassing clouds.10 mph14%30.18 "HgN/A
3:00 PM84 °FPassing clouds.10 mph18%30.21 "HgN/A
2:30 PM84 °FPassing clouds.10 mph18%30.21 "HgN/A
2:00 PM84 °FPassing clouds.10 mph20%30.24 "HgN/A
1:30 PM82 °FPassing clouds.14 mph23%30.24 "HgN/A
1:00 PM82 °FPassing clouds.14 mph25%30.24 "HgN/A
12:30 PM82 °FPassing clouds.12 mph28%30.27 "HgN/A
12:00 PM81 °FSunny.12 mph32%30.27 "Hg10 mi
11:30 AM79 °FPassing clouds.13 mph37%30.27 "HgN/A
11:00 AM81 °FPassing clouds.10 mph32%30.27 "HgN/A
10:30 AM77 °FPassing clouds.8 mph42%30.27 "HgN/A
10:00 AM77 °FScattered clouds.10 mph39%30.27 "HgN/A
9:30 AM77 °FPassing clouds.10 mph36%30.27 "HgN/A
9:00 AM77 °FPassing clouds.8 mph36%30.27 "HgN/A
8:30 AM75 °FPassing clouds.8 mph39%30.27 "HgN/A
8:00 AM75 °FPassing clouds.8 mph39%30.27 "HgN/A
7:30 AM75 °FClear.6 mph36%30.24 "Hg10 mi
7:00 AM75 °FPassing clouds.6 mph39%30.27 "HgN/A
6:30 AM75 °FPassing clouds.5 mph36%30.24 "HgN/A
6:00 AM75 °FClear.2 mph39%30.24 "Hg10 mi
Weather by CustomWeather, © 2014

See weather overviewHow to use our weather pages